,,Stat6,,Stat2,,Stat8,,Stat9,,Stat10,,Wind1,,Wind1,
time,status,PA1M_AVG,status,PR1M_SUM,status,RH1M_AVG,status,SR1M_AVG,status,TA1M_AVG,status,W1dAve1m,status,W1sAve1m,
2003-10-29, 00:00:00,VALID,917.849,VALID,0,VALID,91.272,VALID,-0.0169808,VALID,20.0937,VALID,123,VALID,1.25725,
2003-10-29, 00:01:00,VALID,917.848,VALID,0,VALID,90.8358,VALID,0,VALID,20.1099,VALID,137,VALID,1.8504,
2003-10-29, 00:02:00,VALID,917.851,VALID,0,VALID,90.4747,VALID,0,VALID,20.1452,VALID,140,VALID,1.4088,
2003-10-29, 00:03:00,VALID,917.852,VALID,0,VALID,90.275,VALID,0,VALID,20.1874,VALID,87,VALID,1.38499,
2003-10-29, 00:04:00,VALID,917.855,VALID,0,VALID,90.4836,VALID,-0.0339617,VALID,20.1712,VALID,76,VALID,1.17073,
2003-10-29, 00:05:00,VALID,917.835,VALID,0,VALID,90.2928,VALID,-0.118866,VALID,20.1467,VALID,119,VALID,1.04371,
2003-10-29, 00:06:00,VALID,917.825,VALID,0,VALID,90.1504,VALID,-0.0849042,VALID,20.1623,VALID,127,VALID,1.5998,
2003-10-29, 00:07:00,VALID,917.81,VALID,0,VALID,90.2699,VALID,-0.101885,VALID,20.179,VALID,124,VALID,1.55287,
2003-10-29, 00:08:00,VALID,917.797,VALID,0,VALID,90.2051,VALID,-0.101885,VALID,20.1598,VALID,124,VALID,1.27362,
2003-10-29, 00:09:00,VALID,917.823,VALID,0,VALID,90.2064,VALID,-0.101885,VALID,20.1561,VALID,82,VALID,1.49201,
2003-10-29, 00:10:00,VALID,917.82,VALID,0,VALID,90.2636,VALID,-0.101885,VALID,20.1529,VALID,106,VALID,1.16074,
2003-10-29, 00:11:00,VALID,917.828,VALID,0,VALID,90.2661,VALID,-0.101885,VALID,20.1921,VALID,124,VALID,1.57249,
2003-10-29, 00:12:00,VALID,917.835,VALID,0,VALID,90.2356,VALID,-0.101885,VALID,20.2212,VALID,121,VALID,1.70122,
2003-10-29, 00:13:00,VALID,917.849,VALID,0,VALID,90.0449,VALID,-0.101885,VALID,20.2414,VALID,106,VALID,1.46502,
2003-10-29, 00:14:00,VALID,917.86,VALID,0,VALID,89.6176,VALID,-0.101885,VALID,20.2468,VALID,93,VALID,1.27493,
2003-10-29, 00:15:00,VALID,917.859,VALID,0,VALID,89.465,VALID,-0.135847,VALID,20.2734,VALID,79,VALID,1.33365,
2003-10-29, 00:16:00,VALID,917.865,VALID,0,VALID,89.362,VALID,-0.118866,VALID,20.2858,VALID,61,VALID,0.720982,
2003-10-29, 00:17:00,VALID,917.857,VALID,0,VALID,89.2997,VALID,-0.101885,VALID,20.3082,VALID,69,VALID,0.892014,
2003-10-29, 00:18:00,VALID,917.841,VALID,0,VALID,89.4752,VALID,-0.0849042,VALID,20.3154,VALID,77,VALID,1.06214,
2003-10-29, 00:19:00,VALID,917.824,VALID,0,VALID,89.7003,VALID,-0.0849042,VALID,20.3084,VALID,100,VALID,1.27144,
2003-10-29, 00:20:00,VALID,917.82,VALID,0,VALID,89.657,VALID,0.0169808,VALID,20.2907,VALID,89,VALID,1.05051,
2003-10-29, 00:21:00,VALID,917.805,VALID,0,VALID,89.6367,VALID,0.0169808,VALID,20.3042,VALID,98,VALID,0.829578,
2003-10-29, 00:22:00,VALID,917.794,VALID,0,VALID,89.7384,VALID,0.0169808,VALID,20.3002,VALID,115,VALID,1.4097,
2003-10-29, 00:23:00,VALID,917.782,VALID,0,VALID,89.7855,VALID,0,VALID,20.2942,VALID,126,VALID,1.71801,
2003-10-29, 00:24:00,VALID,917.779,VALID,0,VALID,89.7142,VALID,-0.0169808,VALID,20.2813,VALID,109,VALID,1.33358,
2003-10-29, 00:25:00,VALID,917.746,VALID,0,VALID,89.4205,VALID,0.0169808,VALID,20.2716,VALID,117,VALID,1.71948,
2003-10-29, 00:26:00,VALID,917.735,VALID,0,VALID,89.4815,VALID,0,VALID,20.2776,VALID,122,VALID,1.78478,
2003-10-29, 00:27:00,VALID,917.713,VALID,0,VALID,89.3518,VALID,0,VALID,20.2878,VALID,123,VALID,1.21667,
2003-10-29, 00:28:00,VALID,917.691,VALID,0,VALID,89.3976,VALID,0.0169808,VALID,20.2781,VALID,130,VALID,1.21021,
2003-10-29, 00:29:00,VALID,917.688,VALID,0,VALID,89.4917,VALID,0.0169808,VALID,20.2681,VALID,112,VALID,0.887386,
2003-10-29, 00:30:00,VALID,917.676,VALID,0,VALID,89.6736,VALID,0,VALID,20.2525,VALID,124,VALID,1.20903,
2003-10-29, 00:31:00,VALID,917.672,VALID,0,VALID,89.76,VALID,0.0169808,VALID,20.2237,VALID,116,VALID,0.627096,
2003-10-29, 00:32:00,VALID,917.668,VALID,0,VALID,89.8719,VALID,0.0509425,VALID,20.2068,VALID,114,VALID,0.701265,
2003-10-29, 00:33:00,VALID,917.663,VALID,0,VALID,90.0614,VALID,0.0169808,VALID,20.1844,VALID,98,VALID,0.668341,
2003-10-29, 00:34:00,VALID,917.654,VALID,0,VALID,90.2712,VALID,-0.0169808,VALID,20.1462,VALID,65,VALID,0.812318,
2003-10-29, 00:35:00,VALID,917.645,VALID,0,VALID,90.4569,VALID,-0.101885,VALID,20.1079,VALID,76,VALID,0.908854,
2003-10-29, 00:36:00,VALID,917.636,VALID,0,VALID,90.4085,VALID,-0.101885,VALID,20.0761,VALID,79,VALID,1.02965,
2003-10-29, 00:37:00,VALID,917.621,VALID,0,VALID,90.3055,VALID,-0.101885,VALID,20.0861,VALID,74,VALID,1.21914,
2003-10-29, 00:38:00,VALID,917.597,VALID,0,VALID,90.0525,VALID,-0.0679233,VALID,20.0759,VALID,97,VALID,1.36623,
2003-10-29, 00:39:00,VALID,917.587,VALID,0,VALID,90.0474,VALID,-0.0679233,VALID,20.0729,VALID,85,VALID,1.22191,
2003-10-29, 00:40:00,VALID,917.573,VALID,0,VALID,90.0105,VALID,-0.0849042,VALID,20.0766,VALID,83,VALID,1.127,
2003-10-29, 00:41:00,VALID,917.571,VALID,0,VALID,90.008,VALID,-0.0849042,VALID,20.053,VALID,81,VALID,1.48765,
2003-10-29, 00:42:00,VALID,917.581,VALID,0,VALID,89.9139,VALID,-0.0849042,VALID,20.0597,VALID,87,VALID,1.78086,
2003-10-29, 00:43:00,VALID,917.589,VALID,0,VALID,89.9037,VALID,-0.0679233,VALID,20.0761,VALID,95,VALID,1.79688,
2003-10-29, 00:44:00,VALID,917.588,VALID,0,VALID,89.9291,VALID,-0.0849042,VALID,20.0925,VALID,72,VALID,1.47865,
2003-10-29, 00:45:00,VALID,917.591,VALID,0,VALID,90.1491,VALID,-0.0509425,VALID,20.0726,VALID,100,VALID,1.33092,
2003-10-29, 00:46:00,VALID,917.583,VALID,0,VALID,90.4098,VALID,-0.101885,VALID,20.0374,VALID,110,VALID,1.45808,
2003-10-29, 00:47:00,VALID,917.583,VALID,0,VALID,90.4441,VALID,-0.101885,VALID,20.0051,VALID,91,VALID,1.51414,
2003-10-29, 00:48:00,VALID,917.58,VALID,0,VALID,90.4696,VALID,-0.0849042,VALID,20.0018,VALID,108,VALID,1.73609,
2003-10-29, 00:49:00,VALID,917.576,VALID,0,VALID,90.448,VALID,-0.0509425,VALID,19.9916,VALID,120,VALID,1.65663,
2003-10-29, 00:50:00,VALID,917.577,VALID,0,VALID,90.3361,VALID,0,VALID,20.0227,VALID,117,VALID,1.9137,
2003-10-29, 00:51:00,VALID,917.573,VALID,0,VALID,90.2992,VALID,0,VALID,20.0388,VALID,116,VALID,1.66279,
2003-10-29, 00:52:00,VALID,917.579,VALID,0,VALID,90.3577,VALID,0.0169808,VALID,20.0426,VALID,105,VALID,1.59878,
2003-10-29, 00:53:00,VALID,917.556,VALID,0,VALID,90.3119,VALID,0,VALID,20.0455,VALID,100,VALID,1.39595,
2003-10-29, 00:54:00,VALID,917.551,VALID,0,VALID,90.1975,VALID,0,VALID,20.0649,VALID,96,VALID,1.34299,
2003-10-29, 00:55:00,VALID,917.546,VALID,0,VALID,90.228,VALID,0.0169808,VALID,20.0875,VALID,114,VALID,1.60696,
2003-10-29, 00:56:00,VALID,917.527,VALID,0,VALID,90.3869,VALID,0,VALID,20.0587,VALID,102,VALID,1.31141,
2003-10-29, 00:57:00,VALID,917.516,VALID,0,VALID,90.5459,VALID,0,VALID,20.0391,VALID,96,VALID,1.0524,
2003-10-29, 00:58:00,VALID,917.489,VALID,0,VALID,90.5077,VALID,0,VALID,20.0361,VALID,108,VALID,1.37128,
2003-10-29, 00:59:00,VALID,917.478,VALID,0,VALID,90.4556,VALID,0,VALID,20.0455,VALID,120,VALID,1.66035,
2003-10-29, 01:00:00,VALID,917.468,VALID,0,VALID,90.4683,VALID,0,VALID,20.0458,VALID,122,VALID,1.74371,
2003-10-29, 01:01:00,VALID,917.466,VALID,0,VALID,90.4759,VALID,0.0339617,VALID,20.0324,VALID,126,VALID,1.74085,
2003-10-29, 01:02:00,VALID,917.448,VALID,0,VALID,90.4556,VALID,0.0339617,VALID,20.0393,VALID,124,VALID,1.72837,
2003-10-29, 01:03:00,VALID,917.448,VALID,0,VALID,90.4263,VALID,0,VALID,20.0326,VALID,122,VALID,1.8192,
2003-10-29, 01:04:00,VALID,917.428,VALID,0,VALID,90.4225,VALID,0.0169808,VALID,20.0334,VALID,128,VALID,2.18121,
2003-10-29, 01:05:00,VALID,917.401,VALID,0,VALID,90.1377,VALID,-0.0679233,VALID,20.057,VALID,135,VALID,1.78262,
2003-10-29, 01:06:00,VALID,917.363,VALID,0,VALID,89.8427,VALID,-0.101885,VALID,20.0987,VALID,128,VALID,2.07903,
2003-10-29, 01:07:00,VALID,917.353,VALID,0,VALID,89.5527,VALID,-0.0849042,VALID,20.1474,VALID,126,VALID,2.07578,
2003-10-29, 01:08:00,VALID,917.319,VALID,0,VALID,89.3035,VALID,-0.101885,VALID,20.173,VALID,132,VALID,1.90492,
2003-10-29, 01:09:00,VALID,917.299,VALID,0,VALID,89.1713,VALID,-0.101885,VALID,20.212,VALID,133,VALID,1.693,
2003-10-29, 01:10:00,VALID,917.274,VALID,0,VALID,89.039,VALID,-0.101885,VALID,20.2314,VALID,131,VALID,1.68638,
2003-10-29, 01:11:00,VALID,917.264,VALID,0,VALID,88.9704,VALID,-0.101885,VALID,20.2476,VALID,117,VALID,1.49182,
2003-10-29, 01:12:00,VALID,917.257,VALID,0,VALID,89.1484,VALID,-0.0849042,VALID,20.2317,VALID,102,VALID,1.42912,
2003-10-29, 01:13:00,VALID,917.25,VALID,0,VALID,89.376,VALID,-0.101885,VALID,20.1991,VALID,96,VALID,1.37809,
2003-10-29, 01:14:00,VALID,917.231,VALID,0,VALID,89.3696,VALID,-0.0849042,VALID,20.1661,VALID,99,VALID,1.55088,
2003-10-29, 01:15:00,VALID,917.202,VALID,0,VALID,89.1713,VALID,-0.118866,VALID,20.1892,VALID,112,VALID,1.45982,
2003-10-29, 01:16:00,VALID,917.156,VALID,0,VALID,89.0695,VALID,-0.101885,VALID,20.212,VALID,106,VALID,1.43096,
2003-10-29, 01:17:00,VALID,917.11,VALID,0,VALID,89.0937,VALID,-0.101885,VALID,20.2185,VALID,121,VALID,1.74579,
2003-10-29, 01:18:00,VALID,917.063,VALID,0,VALID,89.0988,VALID,-0.101885,VALID,20.1954,VALID,117,VALID,2.13486,
2003-10-29, 01:19:00,VALID,917.037,VALID,0,VALID,89.2794,VALID,-0.0509425,VALID,20.1959,VALID,131,VALID,1.68484,
2003-10-29, 01:20:00,VALID,917.023,VALID,0,VALID,89.6659,VALID,-0.0509425,VALID,20.1534,VALID,135,VALID,1.62021,
2003-10-29, 01:21:00,VALID,917.023,VALID,0,VALID,90.5827,VALID,-0.0339617,VALID,20.095,VALID,137,VALID,2.04124,
2003-10-29, 01:22:00,VALID,917.012,VALID,0,VALID,91.258,VALID,-0.0339617,VALID,20.0018,VALID,131,VALID,1.46198,
2003-10-29, 01:23:00,VALID,917.027,VALID,0,VALID,91.6509,VALID,-0.0509425,VALID,19.8947,VALID,120,VALID,1.46875,
2003-10-29, 01:24:00,VALID,917.028,VALID,0,VALID,92.0476,VALID,-0.0849042,VALID,19.8309,VALID,123,VALID,1.37363,
2003-10-29, 01:25:00,VALID,917.014,VALID,0,VALID,92.3744,VALID,-0.0679233,VALID,19.7626,VALID,101,VALID,1.40447,
2003-10-29, 01:26:00,VALID,916.997,VALID,0,VALID,92.6211,VALID,-0.0169808,VALID,19.7139,VALID,120,VALID,1.2763,
2003-10-29, 01:27:00,VALID,916.978,VALID,0,VALID,92.8424,VALID,-0.0679233,VALID,19.6784,VALID,126,VALID,1.30469,
2003-10-29, 01:28:00,VALID,916.957,VALID,0,VALID,93.0916,VALID,-0.0509425,VALID,19.6332,VALID,127,VALID,1.29941,
2003-10-29, 01:29:00,VALID,916.939,VALID,0,VALID,93.3002,VALID,-0.0679233,VALID,19.621,VALID,113,VALID,1.09248,
2003-10-29, 01:30:00,VALID,916.921,VALID,0,VALID,93.3256,VALID,-0.0849042,VALID,19.5845,VALID,126,VALID,1.36806,
2003-10-29, 01:31:00,VALID,916.924,VALID,0,VALID,93.318,VALID,-0.0339617,VALID,19.5718,VALID,123,VALID,1.42533,
2003-10-29, 01:32:00,VALID,916.929,VALID,0,VALID,93.2875,VALID,-0.0849042,VALID,19.5723,VALID,114,VALID,1.39499,
2003-10-29, 01:33:00,VALID,916.905,VALID,0,VALID,93.4706,VALID,-0.0849042,VALID,19.5534,VALID,124,VALID,1.45941,
2003-10-29, 01:34:00,VALID,916.905,VALID,0,VALID,93.6054,VALID,-0.0169808,VALID,19.5301,VALID,118,VALID,1.55748,
2003-10-29, 01:35:00,VALID,916.893,VALID,0,VALID,93.716,VALID,-0.0679233,VALID,19.5107,VALID,120,VALID,1.51544,
2003-10-29, 01:36:00,VALID,916.876,VALID,0,VALID,93.866,VALID,-0.0339617,VALID,19.4849,VALID,115,VALID,1.3592,
2003-10-29, 01:37:00,VALID,916.865,VALID,0,VALID,94.0555,VALID,-0.0849042,VALID,19.4588,VALID,118,VALID,1.48289,
2003-10-29, 01:38:00,VALID,916.873,VALID,0,VALID,94.1941,VALID,-0.0509425,VALID,19.4396,VALID,112,VALID,1.50057,
2003-10-29, 01:39:00,VALID,916.874,VALID,0,VALID,94.2793,VALID,-0.0679233,VALID,19.4531,VALID,108,VALID,1.30669,
2003-10-29, 01:40:00,VALID,916.88,VALID,0,VALID,94.2997,VALID,-0.0679233,VALID,19.4789,VALID,98,VALID,1.16842,
2003-10-29, 01:41:00,VALID,916.868,VALID,0,VALID,93.9016,VALID,-0.0339617,VALID,19.5147,VALID,99,VALID,1.42559,
2003-10-29, 01:42:00,VALID,916.855,VALID,0,VALID,93.1247,VALID,-0.0509425,VALID,19.5755,VALID,93,VALID,1.54106,
2003-10-29, 01:43:00,VALID,916.833,VALID,0,VALID,92.3643,VALID,-0.0849042,VALID,19.6463,VALID,91,VALID,1.63597,
2003-10-29, 01:44:00,VALID,916.802,VALID,0,VALID,91.7781,VALID,-0.0509425,VALID,19.7238,VALID,82,VALID,1.48285,
2003-10-29, 01:45:00,VALID,916.789,VALID,0,VALID,91.3661,VALID,-0.0849042,VALID,19.7864,VALID,75,VALID,1.18992,
2003-10-29, 01:46:00,VALID,916.752,VALID,0,VALID,91.1156,VALID,-0.0679233,VALID,19.8083,VALID,74,VALID,1.43641,
2003-10-29, 01:47:00,VALID,916.74,VALID,0,VALID,91.0024,VALID,-0.0679233,VALID,19.8309,VALID,71,VALID,1.36868,
2003-10-29, 01:48:00,VALID,916.739,VALID,0,VALID,90.9121,VALID,-0.0849042,VALID,19.8406,VALID,66,VALID,1.22187,
2003-10-29, 01:49:00,VALID,916.727,VALID,0,VALID,90.7188,VALID,-0.0169808,VALID,19.8428,VALID,72,VALID,1.35785,
2003-10-29, 01:50:00,VALID,916.725,VALID,0,VALID,90.5522,VALID,0.0339617,VALID,19.8615,VALID,75,VALID,0.853981,
2003-10-29, 01:51:00,VALID,916.71,VALID,0,VALID,90.5115,VALID,0.0509425,VALID,19.8808,VALID,74,VALID,0.849359,
2003-10-29, 01:52:00,VALID,916.706,VALID,0,VALID,90.5688,VALID,0.0679233,VALID,19.8677,VALID,59,VALID,0.710756,
2003-10-29, 01:53:00,VALID,916.704,VALID,0,VALID,90.5357,VALID,0.0509425,VALID,19.8746,VALID,56,VALID,0.711846,
2003-10-29, 01:54:00,VALID,916.701,VALID,0,VALID,90.5866,VALID,0.0169808,VALID,19.8287,VALID,48,VALID,0.695126,
2003-10-29, 01:55:00,VALID,916.703,VALID,0,VALID,90.7023,VALID,0.0679233,VALID,19.8162,VALID,44,VALID,0.708079,
2003-10-29, 01:56:00,VALID,916.718,VALID,0,VALID,90.804,VALID,0.0169808,VALID,19.8167,VALID,33,VALID,0.595567,
2003-10-29, 01:57:00,VALID,916.711,VALID,0,VALID,90.9019,VALID,0,VALID,19.7907,VALID,35,VALID,0.611852,
2003-10-29, 01:58:00,VALID,916.697,VALID,0,VALID,91.0253,VALID,0.0339617,VALID,19.7713,VALID,37,VALID,0.610119,
2003-10-29, 01:59:00,VALID,916.688,VALID,0,VALID,91.1067,VALID,0.0339617,VALID,19.7492,VALID,38,VALID,0.640997,
2003-10-29, 02:00:00,VALID,916.676,VALID,0,VALID,91.1321,VALID,0.101885,VALID,19.7358,VALID,38,VALID,0.590298,
2003-10-29, 02:01:00,VALID,916.652,VALID,0,VALID,91.0482,VALID,0.0169808,VALID,19.7492,VALID,35,VALID,0.727471,
2003-10-29, 02:02:00,VALID,916.632,VALID,0,VALID,90.6985,VALID,0.0169808,VALID,19.7611,VALID,44,VALID,0.891369,
2003-10-29, 02:03:00,VALID,916.589,VALID,0,VALID,90.2966,VALID,0.0339617,VALID,19.81,VALID,63,VALID,1.07431,
2003-10-29, 02:04:00,VALID,916.567,VALID,0,VALID,89.9915,VALID,0.0339617,VALID,19.8751,VALID,57,VALID,0.775436,
2003-10-29, 02:05:00,VALID,916.54,VALID,0,VALID,89.802,VALID,-0.101885,VALID,19.9146,VALID,56,VALID,0.680959,
2003-10-29, 02:06:00,VALID,916.521,VALID,0,VALID,90.0779,VALID,-0.0509425,VALID,19.889,VALID,55,VALID,0.561955,
2003-10-29, 02:07:00,VALID,916.508,VALID,0,VALID,90.6425,VALID,-0.0169808,VALID,19.8175,VALID,46,VALID,0.639931,
2003-10-29, 02:08:00,VALID,916.505,VALID,0,VALID,90.9057,VALID,-0.0679233,VALID,19.7338,VALID,44,VALID,0.807927,
2003-10-29, 02:09:00,VALID,916.492,VALID,0,VALID,90.9757,VALID,-0.0849042,VALID,19.7114,VALID,46,VALID,0.73601,
2003-10-29, 02:10:00,VALID,916.501,VALID,0,VALID,91.0087,VALID,-0.0849042,VALID,19.731,VALID,45,VALID,0.620508,
2003-10-29, 02:11:00,VALID,916.506,VALID,0,VALID,91.2135,VALID,-0.0679233,VALID,19.7022,VALID,32,VALID,0.601744,
2003-10-29, 02:12:00,VALID,916.508,VALID,0,VALID,91.4881,VALID,-0.101885,VALID,19.5951,VALID,22,VALID,0.682594,
2003-10-29, 02:13:00,VALID,916.498,VALID,0,VALID,91.9891,VALID,-0.0679233,VALID,19.5306,VALID,20,VALID,0.397866,
2003-10-29, 02:14:00,VALID,916.493,VALID,0,VALID,92.218,VALID,-0.0849042,VALID,19.5084,VALID,20,VALID,0.0258413,
2003-10-29, 02:15:00,VALID,916.494,VALID,0,VALID,92.41,VALID,-0.0849042,VALID,19.4794,VALID,20,VALID,0.516369,
2003-10-29, 02:16:00,VALID,916.479,VALID,0,VALID,92.6364,VALID,-0.0849042,VALID,19.4208,VALID,20,VALID,0.205078,
2003-10-29, 02:17:00,VALID,916.443,VALID,0,VALID,92.8475,VALID,-0.0679233,VALID,19.3726,VALID,45,VALID,0.445494,
2003-10-29, 02:18:00,VALID,916.405,VALID,0,VALID,93.1323,VALID,-0.0849042,VALID,19.3341,VALID,80,VALID,0.518924,
2003-10-29, 02:19:00,VALID,916.369,VALID,0,VALID,93.3103,VALID,-0.0679233,VALID,19.3082,VALID,91,VALID,0.544618,
2003-10-29, 02:20:00,VALID,916.351,VALID,0,VALID,93.3027,VALID,-0.101885,VALID,19.296,VALID,90,VALID,0.502858,
2003-10-29, 02:21:00,VALID,916.335,VALID,0,VALID,93.1616,VALID,-0.101885,VALID,19.2861,VALID,85,VALID,0.168241,
2003-10-29, 02:22:00,VALID,916.318,VALID,0,VALID,93.2099,VALID,-0.0679233,VALID,19.2377,VALID,84,VALID,0.264881,
2003-10-29, 02:23:00,VALID,916.318,VALID,0,VALID,93.4807,VALID,-0.101885,VALID,19.1562,VALID,83,VALID,0.308594,
2003-10-29, 02:24:00,VALID,916.32,VALID,0,VALID,93.9004,VALID,-0.0509425,VALID,19.0693,VALID,79,VALID,0.390816,
2003-10-29, 02:25:00,VALID,916.317,VALID,0,VALID,94.4497,VALID,-0.0849042,VALID,19.0215,VALID,83,VALID,0.668341,
2003-10-29, 02:26:00,VALID,916.325,VALID,0,VALID,94.9113,VALID,-0.0679233,VALID,18.989,VALID,88,VALID,0.711868,
2003-10-29, 02:27:00,VALID,916.335,VALID,0,VALID,94.999,VALID,-0.0679233,VALID,18.9826,VALID,82,VALID,0.657848,
2003-10-29, 02:28:00,VALID,916.336,VALID,0,VALID,95.088,VALID,-0.0849042,VALID,18.9761,VALID,85,VALID,0.760742,
2003-10-29, 02:29:00,VALID,916.351,VALID,0,VALID,95.275,VALID,-0.101885,VALID,18.9756,VALID,99,VALID,0.912642,
2003-10-29, 02:30:00,VALID,916.35,VALID,0,VALID,95.1936,VALID,-0.0849042,VALID,19.0245,VALID,98,VALID,0.799419,
2003-10-29, 02:31:00,VALID,916.358,VALID,0,VALID,95.0321,VALID,-0.0679233,VALID,19.0541,VALID,85,VALID,0.677734,
2003-10-29, 02:32:00,VALID,916.342,VALID,0,VALID,94.9316,VALID,-0.101885,VALID,19.0762,VALID,85,VALID,0.406771,
2003-10-29, 02:33:00,VALID,916.326,VALID,0,VALID,94.9164,VALID,-0.101885,VALID,19.0889,VALID,84,VALID,0.338299,
2003-10-29, 02:34:00,VALID,916.31,VALID,0,VALID,94.9367,VALID,-0.0679233,VALID,19.1013,VALID,84,VALID,0.494665,
2003-10-29, 02:35:00,VALID,916.292,VALID,0,VALID,94.9316,VALID,0.0169808,VALID,19.1135,VALID,86,VALID,0.663699,
2003-10-29, 02:36:00,VALID,916.297,VALID,0,VALID,94.7574,VALID,0.0169808,VALID,19.1396,VALID,105,VALID,0.49295,
2003-10-29, 02:37:00,VALID,916.28,VALID,0,VALID,94.7587,VALID,0,VALID,19.1456,VALID,118,VALID,0.853198,
2003-10-29, 02:38:00,VALID,916.293,VALID,0,VALID,94.7142,VALID,0.0169808,VALID,19.1463,VALID,123,VALID,1.0846,
2003-10-29, 02:39:00,VALID,916.287,VALID,0,VALID,94.7879,VALID,0,VALID,19.1066,VALID,122,VALID,1.288,
2003-10-29, 02:40:00,VALID,916.279,VALID,0,VALID,94.8515,VALID,0,VALID,19.1264,VALID,130,VALID,1.25628,
2003-10-29, 02:41:00,VALID,916.271,VALID,0,VALID,94.6824,VALID,0.0169808,VALID,19.1719,VALID,133,VALID,1.18477,
2003-10-29, 02:42:00,VALID,916.25,VALID,0,VALID,94.4306,VALID,0.0169808,VALID,19.1945,VALID,121,VALID,1.10582,
2003-10-29, 02:43:00,VALID,916.238,VALID,0,VALID,94.4281,VALID,0,VALID,19.1647,VALID,127,VALID,0.904535,
2003-10-29, 02:44:00,VALID,916.202,VALID,0,VALID,94.451,VALID,0,VALID,19.1627,VALID,80,VALID,0.621354,
2003-10-29, 02:45:00,VALID,916.175,VALID,0,VALID,94.7422,VALID,0.0169808,VALID,19.12,VALID,106,VALID,0.984375,
2003-10-29, 02:46:00,VALID,916.162,VALID,0,VALID,94.8782,VALID,0.0339617,VALID,19.1239,VALID,130,VALID,1.23238,
2003-10-29, 02:47:00,VALID,916.144,VALID,0,VALID,94.6722,VALID,0.0169808,VALID,19.1396,VALID,132,VALID,1.03906,
2003-10-29, 02:48:00,VALID,916.141,VALID,0,VALID,94.5641,VALID,0.0509425,VALID,19.159,VALID,130,VALID,1.03659,
2003-10-29, 02:49:00,VALID,916.136,VALID,0,VALID,94.4713,VALID,0,VALID,19.1654,VALID,134,VALID,0.820898,
2003-10-29, 02:50:00,VALID,916.116,VALID,0,VALID,94.5349,VALID,0,VALID,19.1557,VALID,141,VALID,0.827567,
2003-10-29, 02:51:00,VALID,916.104,VALID,0,VALID,94.6849,VALID,0,VALID,19.1393,VALID,146,VALID,1.08663,
2003-10-29, 02:52:00,VALID,916.107,VALID,0,VALID,94.6913,VALID,0,VALID,19.1493,VALID,136,VALID,0.820685,
2003-10-29, 02:53:00,VALID,916.103,VALID,0,VALID,94.6417,VALID,0,VALID,19.1269,VALID,121,VALID,0.978659,
2003-10-29, 02:54:00,VALID,916.102,VALID,0,VALID,95.0245,VALID,0,VALID,19.1172,VALID,111,VALID,1.23328,
2003-10-29, 02:55:00,VALID,916.087,VALID,0,VALID,95.0652,VALID,0,VALID,19.1428,VALID,112,VALID,1.23605,
2003-10-29, 02:56:00,VALID,916.094,VALID,0,VALID,94.807,VALID,0.0169808,VALID,19.1816,VALID,116,VALID,1.01693,
2003-10-29, 02:57:00,VALID,916.073,VALID,0,VALID,94.6417,VALID,0,VALID,19.1947,VALID,117,VALID,0.867001,
2003-10-29, 02:58:00,VALID,916.068,VALID,0,VALID,94.4561,VALID,0,VALID,19.1686,VALID,131,VALID,0.932478,
2003-10-29, 02:59:00,VALID,916.055,VALID,0,VALID,94.5285,VALID,0.0169808,VALID,19.1331,VALID,127,VALID,1.42683,
2003-10-29, 03:00:00,VALID,916.047,VALID,0,VALID,94.7587,VALID,0,VALID,19.1334,VALID,136,VALID,1.30525,
2003-10-29, 03:01:00,VALID,916.048,VALID,0,VALID,94.7727,VALID,0,VALID,19.1495,VALID,131,VALID,1.1701,
2003-10-29, 03:02:00,VALID,916.047,VALID,0,VALID,94.7104,VALID,0.0169808,VALID,19.1689,VALID,145,VALID,0.763021,
2003-10-29, 03:03:00,VALID,916.046,VALID,0,VALID,94.629,VALID,-0.0339617,VALID,19.1756,VALID,146,VALID,0.450893,
2003-10-29, 03:04:00,VALID,916.048,VALID,0,VALID,94.69,VALID,0,VALID,19.1689,VALID,103,VALID,0.896913,
2003-10-29, 03:05:00,VALID,916.048,VALID,0,VALID,94.8757,VALID,0,VALID,19.1555,VALID,106,VALID,0.926258,
2003-10-29, 03:06:00,VALID,916.038,VALID,0,VALID,95.0474,VALID,0,VALID,19.1592,VALID,121,VALID,1.03965,
2003-10-29, 03:07:00,VALID,916.018,VALID,0,VALID,94.9711,VALID,0,VALID,19.1363,VALID,124,VALID,0.914249,
2003-10-29, 03:08:00,VALID,915.992,VALID,0,VALID,95.0334,VALID,-0.0169808,VALID,19.0978,VALID,130,VALID,1.10004,
2003-10-29, 03:09:00,VALID,915.974,VALID,0,VALID,95.4899,VALID,-0.0339617,VALID,19.0325,VALID,134,VALID,1.19074,
2003-10-29, 03:10:00,VALID,915.959,VALID,0,VALID,95.9031,VALID,-0.0169808,VALID,19.0236,VALID,136,VALID,0.902435,
2003-10-29, 03:11:00,VALID,915.968,VALID,0,VALID,95.7518,VALID,-0.0169808,VALID,18.9943,VALID,109,VALID,0.684961,
2003-10-29, 03:12:00,VALID,915.984,VALID,0,VALID,96.0468,VALID,-0.0169808,VALID,18.9747,VALID,109,VALID,0.725174,
2003-10-29, 03:13:00,VALID,915.989,VALID,0,VALID,96.2134,VALID,0,VALID,18.9816,VALID,116,VALID,0.782012,
2003-10-29, 03:14:00,VALID,915.987,VALID,0,VALID,96.202,VALID,-0.0169808,VALID,18.9878,VALID,121,VALID,0.726017,
2003-10-29, 03:15:00,VALID,915.987,VALID,0,VALID,96.1079,VALID,0.0339617,VALID,19.001,VALID,124,VALID,0.640988,
2003-10-29, 03:16:00,VALID,915.973,VALID,0,VALID,96.1702,VALID,0.0169808,VALID,19.0072,VALID,132,VALID,0.780705,
2003-10-29, 03:17:00,VALID,915.967,VALID,0,VALID,96.1804,VALID,0,VALID,19.0166,VALID,131,VALID,0.724276,
2003-10-29, 03:18:00,VALID,915.954,VALID,0,VALID,96.0913,VALID,0,VALID,19.0397,VALID,116,VALID,0.625191,
2003-10-29, 03:19:00,VALID,915.934,VALID,0,VALID,95.603,VALID,0.0169808,VALID,18.9933,VALID,107,VALID,0.16695,
2003-10-29, 03:20:00,VALID,915.92,VALID,0,VALID,95.4479,VALID,0,VALID,18.9421,VALID,107,VALID,0,
2003-10-29, 03:21:00,VALID,915.92,VALID,0,VALID,95.6488,VALID,0,VALID,18.92,VALID,111,VALID,0.346354,
2003-10-29, 03:22:00,VALID,915.911,VALID,0,VALID,95.9553,VALID,0.0169808,VALID,18.8843,VALID,136,VALID,0.513542,
2003-10-29, 03:23:00,VALID,915.911,VALID,0,VALID,96.3584,VALID,0,VALID,18.8746,VALID,141,VALID,0.654762,
2003-10-29, 03:24:00,VALID,915.902,VALID,0,VALID,96.6102,VALID,0.0169808,VALID,18.8681,VALID,134,VALID,0.666602,
2003-10-29, 03:25:00,VALID,915.903,VALID,0,VALID,96.6165,VALID,0,VALID,18.8587,VALID,135,VALID,0.710392,
2003-10-29, 03:26:00,VALID,915.905,VALID,0,VALID,96.8925,VALID,0,VALID,18.8423,VALID,134,VALID,0.821039,
2003-10-29, 03:27:00,VALID,915.904,VALID,0,VALID,96.9382,VALID,0,VALID,18.8264,VALID,127,VALID,0.606771,
2003-10-29, 03:28:00,VALID,915.894,VALID,0,VALID,97.1989,VALID,0,VALID,18.7973,VALID,132,VALID,0.652435,
2003-10-29, 03:29:00,VALID,915.911,VALID,0,VALID,97.4888,VALID,0,VALID,18.7976,VALID,141,VALID,0.792411,
2003-10-29, 03:30:00,VALID,915.9,VALID,0,VALID,97.5054,VALID,-0.0169808,VALID,18.7909,VALID,147,VALID,0.443452,
2003-10-29, 03:31:00,VALID,915.899,VALID,0,VALID,97.5066,VALID,-0.0169808,VALID,18.7747,VALID,135,VALID,0.527431,
2003-10-29, 03:32:00,VALID,915.894,VALID,0,VALID,97.4901,VALID,0,VALID,18.7586,VALID,140,VALID,0.562881,
2003-10-29, 03:33:00,VALID,915.885,VALID,0,VALID,97.5537,VALID,0,VALID,18.729,VALID,140,VALID,0.853743,
2003-10-29, 03:34:00,VALID,915.855,VALID,0,VALID,97.6033,VALID,0,VALID,18.7201,VALID,146,VALID,0.998183,
2003-10-29, 03:35:00,VALID,915.863,VALID,0,VALID,97.7152,VALID,0,VALID,18.7074,VALID,155,VALID,0.775391,